Location: Mococo
(38.0255°N, 122.1161°W)
Time: 05:48:30
(UTC+00:00)

Cosmos 2227 Rocket - Pass Details

Date: 13 February 2026
Orbit: 836 x 845 km, 71.0° (Epoch: 5 March)

Event Time Altitude Azimuth Distance (km) Brightness Sun altitude
Exits shadow 14:16:05 - 316° (NW) 2,927 4.5 -9.4°
Reaches altitude 10° 14:17:35 10° 308° (NW) 2,469 4.1 -9.1°
Maximum altitude 14:21:48 22° 259° (W) 1,774 3.3 -8.3°
Drops below altitude 10° 14:25:59 10° 211° (SSW) 2,458 4.4 -7.5°
Sets 14:28:57 0° 196° (SSW) 3,387 5.3 -6.9°
